Location: Guferjoch
(46.7462°N, 8.4506°E)
Time: 23:46:20
(UTC+00:00)

Spot 4 Rocket - Pass Details

Date: 14 July 2020
Orbit: 777 x 780 km, 98.7° (Epoch: 14 August)

Event Time Altitude Azimuth Distance (km) Brightness Sun altitude
Rises 03:02:34 0° 11° (N) 3,274 8.2 -6.8°
Reaches altitude 10° 03:04:55 10° 8° (N) 2,342 7.3 -6.5°
Maximum altitude 03:09:59 60° 289° (WNW) 889 4.2 -5.9°
Drops below altitude 10° 03:15:02 10° 211° (SSW) 2,328 5.9 -5.2°
Enters shadow 03:16:29 - 208° (SSW) 2,901 6.4 -5.0°
